Regional Weather Roundup
Issued by NWS Little Rock, AR

Home | Current Version | Previous Version | Text Only | Print | Product List | Glossary Off
Versions: 1 2 3 4 5 6 7 8 9 10 11 12 13 14 15 16 17 18 19 20 21 22 23 24 25 26 27 28 29 30 31 32 33 34 35 36 37 38 39 40 41 42 43 44 45 46 47 48 49 50

654
ASUS44 KLZK 230805
RWRLZK

WEATHER ROUNDUP FOR ARKANSAS
NATIONAL WEATHER SERVICE LITTLE ROCK AR
300 AM CDT THU MAR 23 2017

NOTE: "FAIR" INDICATES FEW OR NO CLOUDS BELOW 12,000 FEET WITH NO
SIGNIFICANT WEATHER AND/OR OBSTRUCTIONS TO VISIBILITY.

ARZ001-003-010-029-230900-
NORTHWEST ARKANSAS

CITY           SKY/WX    TMP DP  RH WIND       PRES   REMARKS
FAYETTEVILLE   CLOUDY    52  41  66 SE7       30.16F
FORT SMITH     PTCLDY    51  38  60 E12       30.17F
HARRISON       CLEAR     45  33  63 SE13      30.22F
BENTONVILLE    CLOUDY    54  37  54 SE12G21   30.16F
ROGERS         CLOUDY    51  39  63 SE16      30.16F
SILOAM SPGS    CLOUDY    54  39  58 SE14      30.14F
HIGHFILL       CLOUDY    54  41  61 SE17      30.15F
$$

ARZ004-005-016-230900-
NORTH CENTRAL ARKANSAS

CITY           SKY/WX    TMP DP  RH WIND       PRES   REMARKS
BATESVILLE     CLEAR     46  32  57 CALM      30.26F
FLIPPIN        PTCLDY    48  28  46 E3        30.23F
MTN HOME       PTCLDY    46  30  53 SE5       30.24S
$$

ARZ040-041-230900-
WEST CENTRAL ARKANSAS

CITY           SKY/WX    TMP DP  RH WIND       PRES   REMARKS
MENA           CLEAR     52  50  93 E6        30.18F
MOUNT IDA      PTCLDY    51  41  68 CALM      30.17F
$$

ARZ009-017-025-026-028-230900-
NORTHEAST ARKANSAS

CITY           SKY/WX    TMP DP  RH WIND       PRES   REMARKS
CORNING        CLOUDY    46  32  57 NE7       30.29S
JONESBORO      CLEAR     45  37  73 NE8       30.25F
NEWPORT        PTCLDY    46  37  71 E8          N/A
WALNUT RIDGE   CLEAR     45  34  65 NE6       30.27S
BLYTHEVILLE    CLOUDY    48  35  60 E8        30.27F
$$

ARZ022-023-033-042-044-230900-
CENTRAL ARKANSAS

CITY           SKY/WX    TMP DP  RH WIND       PRES   REMARKS
LITTLE ROCK    CLEAR     47  39  74 NE9       30.23F
N LITTLE ROCK    N/A     49  37  62 E8        30.23F
CONWAY           N/A     48  39  71 NE3       30.22F
SEARCY         CLEAR     48  37  65 NE7       30.26F
HOT SPRINGS    CLEAR     51  40  65 E6        30.20F
RUSSELLVILLE   PTCLDY    50  35  56 E3        30.22F
CLINTON        CLOUDY    41  41 100 CALM      30.25F
$$

ARZ036-230900-
EAST ARKANSAS

CITY           SKY/WX    TMP DP  RH WIND       PRES   REMARKS
WEST MEMPHIS   PTCLDY    51  28  41 E7        30.25S
$$

ARZ050-053-066-070-073-230900-
SOUTHWEST ARKANSAS

CITY           SKY/WX    TMP DP  RH WIND       PRES   REMARKS
ARKADELPHIA    FAIR      52  43  71 NE5       30.20F
CAMDEN         CLEAR     50  45  81 CALM      30.19F
TEXARKANA      CLEAR     55  49  80 E6        30.15F
EL DORADO      CLEAR     54  48  80 NE6       30.18F
DE QUEEN       CLEAR     54  47  77 E7        30.15F
$$

ARZ056-057-069-230900-
SOUTHEAST ARKANSAS

CITY           SKY/WX    TMP DP  RH WIND       PRES   REMARKS
PINE BLUFF     CLEAR     51  40  65 NE5       30.21F
STUTTGART      CLEAR     50  32  50 NE9       30.23F
MONTICELLO     CLEAR     53  43  68 E6        30.19F

$$






USA.gov is the U.S. government's official web portal to all federal, state and local government web resources and services.